Sigfox identifier Datetime Temperature Humidity SNR
002EF148 2019-04-23 15:07:08 16.3 31 23.7
002EF148 2019-04-23 14:34:13 16.2 31 23.8
002EF148 2019-04-23 14:01:22 16.1 31 23.8
002EF148 2019-04-23 13:28:24 16.1 31 23.7
002EF148 2019-04-23 12:55:29 16 31 23.7
002EF148 2019-04-23 12:22:34 15.8 31 24.1
002EF148 2019-04-23 11:49:39 15.7 31 24
002EF148 2019-04-23 11:16:46 15.6 31 24
002EF148 2019-04-23 10:43:51 15.5 31 23.9
002EF148 2019-04-23 10:10:55 15.5 31 23.9
002EF148 2019-04-23 09:38:00 15.5 30 23.6
002EF148 2019-04-23 09:05:04 15.4 30 23.5
002EF148 2019-04-23 08:32:09 15.5 30 23.4
002EF148 2019-04-23 07:59:14 15.5 30 23.2
002EF148 2019-04-23 07:26:19 15.5 30 23.1
002EF148 2019-04-23 06:53:24 15.5 30 23.2
002EF148 2019-04-23 06:20:28 15.5 30 23.3
002EF148 2019-04-23 05:47:32 15.4 30 23.3
002EF148 2019-04-23 05:14:37 15.4 30 23.3
002EF148 2019-04-23 04:41:42 15.5 30 23.5
002EF148 2019-04-23 04:08:48 15.5 30 23.5
002EF148 2019-04-23 03:35:53 15.5 30 23.4
002EF148 2019-04-23 03:02:59 15.5 30 23.5
002EF148 2019-04-23 02:30:03 15.5 30 23.5
002EF148 2019-04-23 01:57:08 15.5 30 23.6
002EF148 2019-04-23 01:24:12 15.5 30 23.6
002EF148 2019-04-23 00:51:16 15.5 30 23.6
002EF148 2019-04-23 00:18:20 15.5 30 23.6
002EF148 2019-04-22 23:45:25 15.5 30 23.6
002EF148 2019-04-22 23:12:28 15.6 30 23.6
002EF148 2019-04-22 22:39:32 15.5 30 22.8
002EF148 2019-04-22 22:06:36 15.7 30 22.9
002EF148 2019-04-22 21:33:41 15.7 30 22.9
002EF148 2019-04-22 21:00:46 15.7 30 23
002EF148 2019-04-22 20:27:51 15.8 30 23.7
002EF148 2019-04-22 19:54:57 15.7 30 23.7
002EF148 2019-04-22 19:22:02 15.8 30 23.8
002EF148 2019-04-22 18:49:06 15.9 30 23.9
002EF148 2019-04-22 18:16:12 15.9 30 23.8
002EF148 2019-04-22 17:43:16 15.9 30 23.8
002EF148 2019-04-22 17:10:21 15.9 30 23.8
002EF148 2019-04-22 16:37:26 15.8 30 23.7
002EF148 2019-04-22 16:04:31 15.8 30 23.7
002EF148 2019-04-22 15:31:35 15.7 30 23.7
002EF148 2019-04-22 14:58:40 15.7 30 23.6
002EF148 2019-04-22 14:25:46 15.7 30 23.7
002EF148 2019-04-22 13:52:51 15.7 30 23.7
002EF148 2019-04-22 13:19:57 15.5 30 23.7
002EF148 2019-04-22 12:47:01 15.5 30 23.6
002EF148 2019-04-22 12:14:06 15.5 30 24.2
002EF148 2019-04-22 11:41:12 15.6 30 24.1
002EF148 2019-04-22 11:08:19 15.6 30 24
002EF148 2019-04-22 10:35:25 15.6 30 24.1
002EF148 2019-04-22 10:02:30 15.4 30 24.1
002EF148 2019-04-22 09:29:35 15.5 29 24.2
002EF148 2019-04-22 08:56:41 15.6 29 24.2
002EF148 2019-04-22 08:23:47 15.5 29 24.2
002EF148 2019-04-22 07:50:52 15.5 29 24.2
002EF148 2019-04-22 07:17:57 15.5 29 24.2
002EF148 2019-04-22 06:45:02 15.5 29 23.5
002EF148 2019-04-22 06:12:07 15.5 29 23.5
002EF148 2019-04-22 05:39:12 15.5 29 23.5
002EF148 2019-04-22 05:06:17 15.5 29 23.4
002EF148 2019-04-22 04:33:20 15.5 29 23.4
002EF148 2019-04-22 04:00:24 15.6 29 23.4
002EF148 2019-04-22 03:27:26 15.5 29 23.4
002EF148 2019-04-22 02:54:30 15.6 29 23.5
002EF148 2019-04-22 02:21:32 15.5 29 23.5
002EF148 2019-04-22 01:48:35 15.5 29 23.5
002EF148 2019-04-22 01:15:36 15.4 29 23.5
002EF148 2019-04-22 00:42:38 15.5 29 23.5
002EF148 2019-04-22 00:09:40 15.4 29 23.5
002EF148 2019-04-21 23:36:42 15.3 29 23.6
002EF148 2019-04-21 23:03:43 15.4 29 23.6
002EF148 2019-04-21 22:30:46 15.5 29 23
002EF148 2019-04-21 21:57:47 15.5 29 23
002EF148 2019-04-21 21:24:48 15.5 29 23
002EF148 2019-04-21 20:51:50 15.5 29 22.8
002EF148 2019-04-21 20:18:54 15.4 29 22.8
002EF148 2019-04-21 19:45:57 15.4 29 22.8
002EF148 2019-04-21 19:13:00 15.4 29 22.6
002EF148 2019-04-21 18:40:05 15.3 29 22.7
002EF148 2019-04-21 18:07:09 15.3 29 22.8
002EF148 2019-04-21 17:34:13 15.3 29 22.8
002EF148 2019-04-21 17:01:17 15.3 29 22.9
002EF148 2019-04-21 16:28:21 15.3 29 23
002EF148 2019-04-21 15:55:25 15.3 29 23
002EF148 2019-04-21 15:22:28 15.2 29 23
002EF148 2019-04-21 14:49:32 15.3 29 23
002EF148 2019-04-21 14:16:37 15.3 29 23.1
002EF148 2019-04-21 13:43:41 15.3 28 23
002EF148 2019-04-21 13:10:44 15.3 28 22.9
002EF148 2019-04-21 12:37:48 15.3 28 23
002EF148 2019-04-21 12:04:52 15.2 28 22.9
002EF148 2019-04-21 11:31:57 15.3 28 22.9
002EF148 2019-04-21 10:59:01 15.3 28 22.9
002EF148 2019-04-21 10:26:06 15.3 28 22.7
002EF148 2019-04-21 09:53:10 15.2 28 22.6
002EF148 2019-04-21 09:20:15 15.3 28 22.5
002EF148 2019-04-21 08:47:20 15.5 28 22.5
002EF148 2019-04-21 08:14:23 15.6 28 23.3
002EF148 2019-04-21 07:41:27 15.5 28 23.4
002EF148 2019-04-21 07:08:31 15.5 28 23.5
002EF148 2019-04-21 06:35:34 15.5 28 23.5
002EF148 2019-04-21 06:02:39 15.5 28 23.4
002EF148 2019-04-21 05:29:42 15.6 28 23.5
002EF148 2019-04-21 04:56:46 15.6 28 23.5
002EF148 2019-04-21 04:23:50 15.5 28 23.3
002EF148 2019-04-21 03:50:52 15.5 28 23.3
002EF148 2019-04-21 03:17:55 15.5 28 23.2
002EF148 2019-04-21 02:44:59 15.5 28 23.2
002EF148 2019-04-21 02:12:03 15.4 28 23.1
002EF148 2019-04-21 01:39:05 15.6 28 23.1
002EF148 2019-04-21 01:06:08 15.5 28 23.1
002EF148 2019-04-21 00:33:12 15.5 28 23.1
002EF148 2019-04-21 00:00:15 15.5 28 23
002EF148 2019-04-20 23:27:19 15.3 28 22.9
002EF148 2019-04-20 22:54:20 15.5 28 22.7
002EF148 2019-04-20 22:21:24 15.5 28 22.8
002EF148 2019-04-20 21:48:26 15.5 28 22.8
002EF148 2019-04-20 21:15:28 15.5 28 22.8
002EF148 2019-04-20 20:42:31 15.5 28 22.8
002EF148 2019-04-20 20:09:35 15.5 28 22.9
002EF148 2019-04-20 19:36:37 15.5 28 22.8
002EF148 2019-04-20 19:03:42 15.5 28 22.8
002EF148 2019-04-20 18:30:47 15.5 28 22.1
002EF148 2019-04-20 17:57:52 15.6 28 22
002EF148 2019-04-20 17:24:58 15.5 28 22
002EF148 2019-04-20 16:52:03 15.4 28 21.9
002EF148 2019-04-20 16:19:07 15.5 27 22
002EF148 2019-04-20 15:46:13 15.5 27 22
002EF148 2019-04-20 15:13:17 15.5 28 22.1
002EF148 2019-04-20 14:40:21 15.3 27 22.2
002EF148 2019-04-20 14:07:28 15.3 27 22.4
002EF148 2019-04-20 13:34:31 15.4 27 22.3
002EF148 2019-04-20 13:01:34 15.3 27 22.3
002EF148 2019-04-20 12:28:38 15.4 27 22.4
002EF148 2019-04-20 11:55:41 15.4 27 22.2
002EF148 2019-04-20 11:22:45 15.5 27 22
002EF148 2019-04-20 10:49:50 15.4 27 22
002EF148 2019-04-20 10:16:54 15.5 27 22.2
002EF148 2019-04-20 09:43:58 15.5 27 22.5
002EF148 2019-04-20 09:11:02 15.5 27 22.4
002EF148 2019-04-20 08:38:06 15.5 27 22.5
002EF148 2019-04-20 08:05:10 15.6 27 22.6
002EF148 2019-04-20 07:32:14 15.6 27 22.6
002EF148 2019-04-20 06:59:18 15.6 27 22.7
002EF148 2019-04-20 06:26:21 15.5 27 22.6
002EF148 2019-04-20 05:53:26 15.6 27 22.7
002EF148 2019-04-20 05:20:28 15.6 27 22.7
002EF148 2019-04-20 04:47:29 15.6 27 22.8
002EF148 2019-04-20 04:14:31 15.6 27 22.9
002EF148 2019-04-20 03:41:33 15.6 27 23
002EF148 2019-04-20 03:08:36 15.7 27 23.1
002EF148 2019-04-20 02:35:39 15.7 27 23.1
002EF148 2019-04-20 02:02:43 15.7 27 23.1
002EF148 2019-04-20 01:29:45 15.7 27 23.2
002EF148 2019-04-20 00:56:46 15.7 27 23.7
002EF148 2019-04-20 00:23:48 15.9 27 23.7
002EF148 2019-04-19 23:50:51 15.9 27 23.8
002EF148 2019-04-19 23:17:54 16 27 23.9
002EF148 2019-04-19 22:44:57 16 27 24
002EF148 2019-04-19 22:12:01 15.9 27 24.1
002EF148 2019-04-19 21:39:04 16 27 24.1
002EF148 2019-04-19 21:06:06 15.9 27 24.1
002EF148 2019-04-19 20:33:08 15.9 27 24
002EF148 2019-04-19 20:00:12 15.9 27 24
002EF148 2019-04-19 19:27:13 16.1 27 24.1
002EF148 2019-04-19 18:54:16 16.1 26 24.1
002EF148 2019-04-19 18:21:19 15.9 27 24.1
002EF148 2019-04-19 17:48:21 15.9 27 24.1
002EF148 2019-04-19 17:15:24 16 26 24.2
002EF148 2019-04-19 16:42:28 15.9 26 24.2
002EF148 2019-04-19 16:09:31 16 26 24.3
002EF148 2019-04-19 15:36:33 16 26 24.3
002EF148 2019-04-19 15:03:36 15.9 26 24.2
002EF148 2019-04-19 14:30:39 15.7 26 24.2
002EF148 2019-04-19 13:57:42 15.7 26 24.2
002EF148 2019-04-19 13:24:46 15.8 26 24.3
002EF148 2019-04-19 12:51:48 15.7 26 24.2
002EF148 2019-04-19 12:18:50 15.7 26 24.3
002EF148 2019-04-19 11:45:53 15.6 26 23.8
002EF148 2019-04-19 11:12:55 15.6 26 23.8
002EF148 2019-04-19 10:39:57 15.7 26 23.7
002EF148 2019-04-19 10:06:59 15.6 26 23.7
002EF148 2019-04-19 09:34:01 15.6 26 23.7
002EF148 2019-04-19 09:01:05 15.6 26 23.7
002EF148 2019-04-19 08:28:07 15.6 26 23.8
002EF148 2019-04-19 07:55:10 15.5 26 23.8
002EF148 2019-04-19 07:22:12 15.7 26 24
002EF148 2019-04-19 06:49:15 15.7 26 24.1
002EF148 2019-04-19 06:16:20 15.8 26 24.1
002EF148 2019-04-19 05:43:24 15.8 26 24.1
002EF148 2019-04-19 05:10:29 15.8 26 24
002EF148 2019-04-19 04:37:33 15.7 26 24
002EF148 2019-04-19 04:04:39 15.7 25 24
002EF148 2019-04-19 03:31:45 15.8 25 24
002EF148 2019-04-19 02:58:50 15.7 26 24
002EF148 2019-04-19 02:25:56 15.7 25 24.1
002EF148 2019-04-19 01:53:02 15.9 25 24.2
002EF148 2019-04-19 01:20:06 16 25 24.3
002EF148 2019-04-19 00:47:12 16.1 25 24.5
002EF148 2019-04-19 00:14:18 16.1 25 24.4
002EF148 2019-04-18 23:41:24 16.2 25 24.3
002EF148 2019-04-18 23:08:30 16.3 25 24.3
002EF148 2019-04-18 22:35:35 16.4 25 24.2
002EF148 2019-04-18 22:02:40 16.5 25 24.2
002EF148 2019-04-18 21:29:45 16.6 25 24.2
002EF148 2019-04-18 20:56:50 16.5 25 24.3
002EF148 2019-04-18 20:23:56 16.6 25 24.3
002EF148 2019-04-18 19:51:00 16.6 25 24.4
002EF148 2019-04-18 19:18:04 16.5 25 24.5
002EF148 2019-04-18 18:45:10 16.5 25 24.5
002EF148 2019-04-18 18:12:13 16.6 25 24.6
002EF148 2019-04-18 17:39:17 16.6 25 24.5
002EF148 2019-04-18 17:06:21 16.4 25 24.6
002EF148 2019-04-18 16:33:25 16.4 25 24.7
002EF148 2019-04-18 16:00:29 16.4 25 24.8
002EF148 2019-04-18 15:27:33 16.4 25 24.9
002EF148 2019-04-18 14:54:36 16.2 25 25
002EF148 2019-04-18 14:21:40 16.2 25 25.1
002EF148 2019-04-18 13:48:44 16 25 25.1
002EF148 2019-04-18 13:15:48 15.9 25 25
002EF148 2019-04-18 12:42:53 15.9 25 24.8
002EF148 2019-04-18 12:09:56 16 25 24.8
002EF148 2019-04-18 11:37:00 15.9 25 24.6
002EF148 2019-04-18 11:04:03 16 25 24.4
002EF148 2019-04-18 10:31:07 16 25 24.4
002EF148 2019-04-18 09:58:11 15.7 25 24.6
002EF148 2019-04-18 09:25:15 15.8 24 24.6
002EF148 2019-04-18 08:52:19 15.9 24 24.7
002EF148 2019-04-18 08:19:23 16.1 24 24.7
002EF148 2019-04-18 07:46:26 16.1 24 24.7
002EF148 2019-04-18 07:13:30 16.1 24 24.7
002EF148 2019-04-18 06:40:33 16.1 24 24.7
002EF148 2019-04-18 06:07:37 15.9 24 24.7
002EF148 2019-04-18 05:34:41 15.9 24 24.6
002EF148 2019-04-18 05:01:46 15.9 24 24.7
002EF148 2019-04-18 04:28:50 16 24 24.5
002EF148 2019-04-18 03:55:55 15.9 24 24.6
002EF148 2019-04-18 03:22:59 15.9 24 24.5
002EF148 2019-04-18 02:50:04 15.9 24 24.5
002EF148 2019-04-18 02:17:08 16 24 24.3
002EF148 2019-04-18 01:44:11 16 24 24.1
002EF148 2019-04-18 01:11:15 16.1 24 24
002EF148 2019-04-18 00:38:19 16.2 24 23.8
002EF148 2019-04-18 00:05:23 16.3 24 23.6
002EF148 2019-04-17 23:32:27 16.3 24 23.7
002EF148 2019-04-17 22:59:31 16.5 24 23.7
002EF148 2019-04-17 22:26:35 16.5 24 23.7
002EF148 2019-04-17 21:53:39 16.4 24 23.7
002EF148 2019-04-17 21:20:44 16.3 24 23.5
002EF148 2019-04-17 20:47:49 16.2 24 23.3
002EF148 2019-04-17 20:14:54 16.2 24 23.2
002EF148 2019-04-17 19:41:59 16.3 24 22.9
002EF148 2019-04-17 19:09:04 16.3 23 23
002EF148 2019-04-17 18:36:08 16.1 23 22.8
002EF148 2019-04-17 18:03:13 16.1 23 22.8
002EF148 2019-04-17 17:30:17 16.1 23 22.5
002EF148 2019-04-17 16:57:22 16.2 23 22.4
002EF148 2019-04-17 16:24:27 16.1 23 22.2
002EF148 2019-04-17 15:51:32 16 23 22.8
002EF148 2019-04-17 15:18:37 16 23 22.8
002EF148 2019-04-17 14:45:43 16.2 23 22.6
002EF148 2019-04-17 14:12:48 16.2 23 22.4
002EF148 2019-04-17 13:39:54 16.4 23 22.2
002EF148 2019-04-17 13:06:58 16.3 23 22.2
002EF148 2019-04-17 12:34:03 16.4 23 22.3
002EF148 2019-04-17 12:01:07 16.2 23 22.3
002EF148 2019-04-17 11:28:11 16.2 23 22.3
002EF148 2019-04-17 10:55:17 16.1 23 22.2
002EF148 2019-04-17 10:22:21 16.2 23 22.2
002EF148 2019-04-17 09:49:25 16.2 23 22
002EF148 2019-04-17 09:16:28 16.2 23 21.7
002EF148 2019-04-17 08:43:32 16.4 22 21.6
002EF148 2019-04-17 08:10:36 16.6 22 21.6
002EF148 2019-04-17 07:37:41 16.9 22 21.6
002EF148 2019-04-17 07:04:46 17 22 21.5
002EF148 2019-04-17 06:31:49 17.2 22 21.4
002EF148 2019-04-17 05:58:53 17.4 22 21.5
002EF148 2019-04-17 05:25:57 17.4 22 21.4
002EF148 2019-04-17 04:53:00 17.5 22 21.6
002EF148 2019-04-17 04:20:04 17.4 22 21.7
002EF148 2019-04-17 03:47:09 17.6 22 21.5
002EF148 2019-04-17 03:14:14 17.6 22 21.7
002EF148 2019-04-17 02:41:20 17.7 22 21.5
002EF148 2019-04-17 02:08:24 17.7 22 20.1
002EF148 2019-04-17 01:35:29 17.6 22 19.9
002EF148 2019-04-17 01:02:35 17.7 22 19.7
002EF148 2019-04-17 00:29:39 17.5 22 19.5
002EF148 2019-04-16 23:56:45 17.2 22 19.3
002EF148 2019-04-16 23:23:50 17.1 22 19.1
002EF148 2019-04-16 22:50:56 17.3 22 20.6
002EF148 2019-04-16 22:18:01 17.7 22 20.5
002EF148 2019-04-16 21:45:06 17.9 22 20.4
002EF148 2019-04-16 21:12:11 18.3 22 20.3
002EF148 2019-04-16 20:39:16 18.4 22 20.3
002EF148 2019-04-16 20:06:21 18.4 22 20
002EF148 2019-04-16 19:33:26 18.4 22 19.9
002EF148 2019-04-16 19:00:33 18.5 22 19.9
002EF148 2019-04-16 18:27:38 18.5 22 19.7
002EF148 2019-04-16 17:54:44 18.7 22 19.5
002EF148 2019-04-16 16:48:56 19.1 22 19.5
002EF148 2019-04-16 16:16:06 19.2 22 19.6
002EF148 2019-04-16 15:10:11 19.8 22 19.3
002EF148 2019-04-16 14:37:17 20.4 21 19.1
002EF148 2019-04-16 14:04:21 21.1 22 18.6
002EF148 2019-04-16 13:31:27 21.1 22 18
002EF148 2019-04-16 12:58:32 21 22 18.1
002EF148 2019-04-16 12:25:36 21 22 17.6
002EF148 2019-04-16 11:52:40 20.8 22 17.6
002EF148 2019-04-16 11:19:44 20.9 22 17.6
002EF148 2019-04-16 10:46:48 20.8 22 17.7
002EF148 2019-04-16 10:13:52 20.8 22 17.7
002EF148 2019-04-16 09:40:57 20.9 22 17.8
002EF148 2019-04-16 09:07:59 20.7 22 17.8
002EF148 2019-04-16 08:35:03 20.7 22 17.7
002EF148 2019-04-16 08:02:08 20.8 22 17.7
002EF148 2019-04-16 07:29:17 20.8 22 19.9
002EF148 2019-04-16 06:56:21 20.7 22 19.9
002EF148 2019-04-16 06:23:27 20.9 22 19.9
002EF148 2019-04-16 05:50:33 20.8 22 19.9
002EF148 2019-04-16 05:17:39 20.8 22 19.9
002EF148 2019-04-16 04:44:45 20.9 22 19.9
002EF148 2019-04-16 04:11:51 20.8 22 19.9
002EF148 2019-04-16 03:38:56 20.9 22 19.9
002EF148 2019-04-16 03:06:03 20.8 22 20
002EF148 2019-04-16 02:33:09 20.9 22 20.1
002EF148 2019-04-16 02:00:14 20.8 22 20.4
002EF148 2019-04-16 01:27:19 20.9 22 20.7
002EF148 2019-04-16 00:54:23 20.8 21 21
002EF148 2019-04-16 00:21:27 20.8 21 22.2
002EF148 2019-04-15 23:48:31 20.8 21 22.5
002EF148 2019-04-15 23:15:36 20.9 21 22.7
002EF148 2019-04-15 22:42:41 20.9 21 23
002EF148 2019-04-15 22:09:46 20.9 21 23.1
002EF148 2019-04-15 21:36:52 20.9 21 23.5
002EF148 2019-04-15 21:03:59 21 21 23.9
002EF148 2019-04-15 20:31:04 21 21 24.1
002EF148 2019-04-15 19:58:09 21 21 24.2
002EF148 2019-04-15 19:25:15 21 20 24.5
002EF148 2019-04-15 18:52:20 21.1 20 24
002EF148 2019-04-15 18:19:26 21.1 20 24.1
002EF148 2019-04-15 17:46:32 21.1 20 24.2
002EF148 2019-04-15 17:13:43 21.1 20 24.5
002EF148 2019-04-15 16:40:47 21.3 20 24.7
002EF148 2019-04-15 16:07:50 21.4 20 24.9
002EF148 2019-04-15 15:34:55 21.3 19 25.1
002EF148 2019-04-15 14:29:06 21.4 19 25.2
002EF148 2019-04-15 13:56:16 21.7 19 25.3
002EF148 2019-04-15 13:23:18 22 18 25.4
002EF148 2019-04-15 12:50:25 22.2 18 25.6
002EF148 2019-04-15 12:17:29 22.4 18 25.6
002EF148 2019-04-15 11:44:34 22.4 16 25.6
002EF148 2019-04-15 11:11:40 22.4 16 25.6
002EF148 2019-04-15 10:38:47 22.2 17 25.2
002EF148 2019-04-15 10:05:53 22.2 17 25.3
002EF148 2019-04-15 09:32:58 22.2 17 25.6
002EF148 2019-04-15 09:00:03 22.2 17 25.5
002EF148 2019-04-15 08:27:09 22 17 25.7
002EF148 2019-04-15 07:54:14 21.9 17 25.9
002EF148 2019-04-15 07:21:18 21.9 17 25.8
002EF148 2019-04-15 06:48:25 21.9 17 25.7
002EF148 2019-04-15 06:15:30 21.9 17 25.7
002EF148 2019-04-15 05:42:35 21.8 17 25.7
002EF148 2019-04-15 05:09:41 21.8 17 25.7
002EF148 2019-04-15 04:36:46 21.7 18 25.4
002EF148 2019-04-15 04:03:53 21.9 18 25.4
002EF148 2019-04-15 03:30:59 21.9 18 25.7
002EF148 2019-04-15 02:58:07 21.8 18 25.6
002EF148 2019-04-15 02:25:13 21.9 18 25.6
002EF148 2019-04-15 01:52:17 21.8 18 25.6
002EF148 2019-04-15 01:19:22 21.8 18 25.5
002EF148 2019-04-15 00:46:26 21.9 18 25.5
002EF148 2019-04-15 00:13:31 21.8 18 25.7
002EF148 2019-04-14 23:40:35 21.8 18 25.7
002EF148 2019-04-14 23:07:40 21.9 18 25.6
002EF148 2019-04-14 22:34:45 21.9 18 26
002EF148 2019-04-14 22:01:51 22 18 26
002EF148 2019-04-14 21:28:57 21.9 19 26
002EF148 2019-04-14 20:56:02 21.9 19 26
002EF148 2019-04-14 20:23:08 22 19 25.9
002EF148 2019-04-14 19:50:13 22.2 19 25.5
002EF148 2019-04-14 19:17:18 21.9 18 25.5
002EF148 2019-04-14 18:44:24 22 18 25.4
002EF148 2019-04-14 18:11:29 21.9 18 25
002EF148 2019-04-14 17:38:32 21.9 18 25.1
002EF148 2019-04-14 17:05:35 21.9 18 25.1
002EF148 2019-04-14 16:32:39 21.9 18 25.1
002EF148 2019-04-14 15:59:43 21.9 18 25.5
002EF148 2019-04-14 15:26:45 21.9 18 25.5
002EF148 2019-04-14 14:53:49 21.9 18 25.5
002EF148 2019-04-14 14:20:53 21.9 18 25.6
002EF148 2019-04-14 13:47:57 21.9 18 25.4
002EF148 2019-04-14 13:15:01 21.9 19 25.4
002EF148 2019-04-14 12:42:06 21.9 19 25.3
002EF148 2019-04-14 12:09:10 21.9 19 25.7
002EF148 2019-04-14 11:36:15 21.9 19 25.8
002EF148 2019-04-14 11:03:20 21.9 19 25.7
002EF148 2019-04-14 10:30:25 22 19 25.6
002EF148 2019-04-14 09:57:30 21.9 19 25.5
002EF148 2019-04-14 09:24:35 21.9 19 25.6
002EF148 2019-04-14 08:51:40 21.9 18 25.1
002EF148 2019-04-14 08:18:45 21.8 18 25.2
002EF148 2019-04-14 07:45:50 21.9 18 25.1
002EF148 2019-04-14 07:12:56 21.9 18 25.2
002EF148 2019-04-14 06:40:01 21.9 18 25.3
002EF148 2019-04-14 06:07:04 21.9 18 25.8
002EF148 2019-04-14 05:34:09 21.9 18 25.7
002EF148 2019-04-14 05:01:13 21.9 18 25.8
002EF148 2019-04-14 04:28:20 21.9 18 25.7
002EF148 2019-04-14 03:55:24 21.9 18 25.7
002EF148 2019-04-14 03:22:29 21.9 18 25.7
002EF148 2019-04-14 02:49:33 21.9 18 25.7
002EF148 2019-04-14 02:16:38 21.9 18 25.7
002EF148 2019-04-14 01:43:41 22 18 25.7
002EF148 2019-04-14 01:10:45 21.9 18 25.7
002EF148 2019-04-14 00:37:49 22 18 25.6
002EF148 2019-04-14 00:04:54 22.1 18 25.5
002EF148 2019-04-13 23:31:57 22.1 18 25.6
002EF148 2019-04-13 22:59:02 22.1 18 25.5
002EF148 2019-04-13 22:26:05 22.2 18 25.2
002EF148 2019-04-13 21:53:10 22.2 18 25
002EF148 2019-04-13 21:20:14 22.2 18 25
002EF148 2019-04-13 20:47:18 22.1 18 25
002EF148 2019-04-13 20:14:24 22.1 18 25.1
002EF148 2019-04-13 19:41:27 22.2 18 25.2
002EF148 2019-04-13 19:08:30 22.1 18 25.3
002EF148 2019-04-13 18:35:33 22.1 18 25.3
002EF148 2019-04-13 18:02:36 22.1 18 25.4
002EF148 2019-04-13 17:29:40 22.2 18 25.3
002EF148 2019-04-13 16:56:43 22.2 18 25.2
002EF148 2019-04-13 16:23:46 22.3 18 24.8
002EF148 2019-04-13 15:50:50 22.3 18 24.9
002EF148 2019-04-13 15:17:55 22.4 18 25
002EF148 2019-04-13 14:44:58 22.3 18 25
002EF148 2019-04-13 14:11:59 22.4 18 25.1
002EF148 2019-04-13 13:39:01 22.3 18 25.2
002EF148 2019-04-13 13:06:03 22.3 18 25.1
002EF148 2019-04-13 12:33:06 22.3 18 25
002EF148 2019-04-13 12:00:10 22.3 18 24.9
002EF148 2019-04-13 11:27:14 22.3 18 25
002EF148 2019-04-13 10:54:18 22.3 18 25.1
002EF148 2019-04-13 10:21:23 22.4 18 25.1
002EF148 2019-04-13 09:48:25 22.4 18 24.9
002EF148 2019-04-13 09:15:28 22.4 18 25
002EF148 2019-04-13 08:42:32 22.4 18 25
002EF148 2019-04-13 08:09:36 22.3 18 24.9
002EF148 2019-04-13 07:36:39 22.3 18 25
002EF148 2019-04-13 07:03:43 22.3 18 25
002EF148 2019-04-13 06:30:46 22.3 18 25.1
002EF148 2019-04-13 05:57:49 22.3 18 24.9
002EF148 2019-04-13 05:24:53 22.3 18 24.7
002EF148 2019-04-13 04:51:57 22.3 18 24.6
002EF148 2019-04-13 04:19:01 22.3 18 25
002EF148 2019-04-13 03:46:05 22.4 17 25.4
002EF148 2019-04-13 03:13:10 22.6 18 25.3
002EF148 2019-04-13 02:40:13 22.5 18 25.4
002EF148 2019-04-13 02:07:17 22.6 18 25.5
002EF148 2019-04-13 01:34:20 22.5 18 25.4
002EF148 2019-04-13 01:01:24 22.5 18 25.5
002EF148 2019-04-13 00:28:26 22.5 18 25.4
002EF148 2019-04-12 23:55:30 22.6 18 25.4
002EF148 2019-04-12 23:22:34 22.6 18 25.4
002EF148 2019-04-12 22:49:38 22.7 18 25.2
002EF148 2019-04-12 22:16:43 22.7 19 25.3
002EF148 2019-04-12 21:43:46 22.8 19 25.2
002EF148 2019-04-12 21:10:50 22.8 19 25.1
002EF148 2019-04-12 20:37:54 22.7 19 25.2
002EF148 2019-04-12 20:04:58 22.8 18 25.4
002EF148 2019-04-12 19:32:02 22.8 18 25.5
002EF148 2019-04-12 18:59:05 22.9 18 25.6
002EF148 2019-04-12 18:26:09 22.9 17 25.9
002EF148 2019-04-12 17:53:12 23 18 26.1
002EF148 2019-04-12 17:20:15 23 17 26.4
002EF148 2019-04-12 16:47:18 23.1 18 26.2
002EF148 2019-04-12 16:14:21 23 18 26.8
002EF148 2019-04-12 15:41:25 22.9 18 27.4
002EF148 2019-04-12 15:08:28 22.8 19 28.1
002EF148 2019-04-12 14:35:32 22.5 19 27.2
002EF148 2019-04-12 14:02:35 22.2 20 24.5
002EF148 2019-04-12 13:29:37 21.7 21 27
002EF148 2019-04-12 12:56:39 20.9 26 0